Location: Fazenda Monte Alegre
(4.8500°S, 38.0333°W)
Time: 16:40:30
(UTC+00:00)

MINOTAUR IV R/B - Pass Details

Date: 24 September 2020
Orbit: 622 x 642 km, 72.0° (Epoch: 15 October)

Event Time Altitude Azimuth Distance (km) Brightness Sun altitude
Rises 21:37:09 0° 347° (NNW) 2,894 8.1 -18.2°
Reaches altitude 10° 21:39:24 10° 348° (NNW) 1,994 7.3 -18.7°
Maximum altitude 21:43:52 82° 76° (ENE) 640 4.4 -19.8°
Drops below altitude 10° 21:48:25 10° 163° (SSE) 2,020 7.0 -21.0°
Enters shadow 21:49:46 - 164° (SSE) 2,562 7.6 -21.3°
